Terug naar catalogus

STARLINK-5580

ActiefCommunicatieVLEO
NORAD 55748·PAYLOAD·🇺🇸 United States

Gelanceerd Mar 3, 2023 vanaf Vandenberg Space Force Base

Loading…

Volgende Passages (komende 24 uur)

TLE

VersSource: CelesTrak SupGP

Epoch: Sep 15, 2026, 02:16 UTC

1 55748C 23028H   26258.09493056  .00028677  00000+0  24032-2 0  2583
2 55748  69.9998 126.9388 0002909 271.7174 325.7102 14.98316717    15

Volg STARLINK-5580 in realtime met AllMySat

Download on the App Store